1998-067QR

Last updated on Fri Jul 19 2019 00:02:10 GMT+0000 (Coordinated Universal Time)

1 44431U 98067QR 19199.15151753 .00003930 00000-0 72179-4 0 9998 2 44431 51.6403 207.5681 0003440 158.3854 201.7281 15.51811315 2296
UTC large
Height (km)
Speed (km/s)
/
Latitude / Longitude
Inclination (degrees)
Orbital Period (minutes)
Azimuth
Elevation
Range (km)
Doppler Factor

Next 0 passes for location: London (51.5072 / 0.1276)

Sorry there are no passes over London.